TimeEST,TemperatureF,Dew PointF,Humidity,Sea Level PressureIn,VisibilityMPH,Wind Direction,Wind SpeedMPH,Gust SpeedMPH,PrecipitationIn,Events,Conditions,WindDirDegrees,DateUTC
12:54 AM,39.9,27.0,60,29.78,10.0,East,5.8,-,N/A,,Overcast,80,2012-02-22 05:54:00
1:54 AM,39.9,28.0,63,29.77,10.0,East,8.1,-,N/A,,Overcast,80,2012-02-22 06:54:00
2:54 AM,41.0,30.0,65,29.75,10.0,ESE,3.5,-,N/A,,Overcast,110,2012-02-22 07:54:00
3:54 AM,39.9,30.9,70,29.73,10.0,SE,3.5,-,N/A,,Overcast,130,2012-02-22 08:54:00
4:54 AM,37.0,30.9,79,29.76,10.0,Calm,Calm,-,0.00,,Overcast,0,2012-02-22 09:54:00
5:54 AM,36.0,30.0,79,29.77,10.0,Calm,Calm,-,N/A,,Clear,0,2012-02-22 10:54:00
6:54 AM,33.1,30.0,89,29.77,8.0,Calm,Calm,-,N/A,,Mostly Cloudy,0,2012-02-22 11:54:00
7:54 AM,35.1,32.0,89,29.78,6.0,Calm,Calm,-,N/A,,Scattered Clouds,0,2012-02-22 12:54:00
8:54 AM,43.0,35.1,74,29.77,9.0,Calm,Calm,-,N/A,,Overcast,0,2012-02-22 13:54:00
9:54 AM,48.0,33.1,56,29.74,10.0,Variable,4.6,-,N/A,,Mostly Cloudy,0,2012-02-22 14:54:00
10:54 AM,48.0,32.0,54,29.70,10.0,West,4.6,-,N/A,,Partly Cloudy,260,2012-02-22 15:54:00
11:54 AM,50.0,30.9,48,29.65,10.0,SSE,8.1,-,N/A,,Mostly Cloudy,150,2012-02-22 16:54:00
12:54 PM,53.1,27.0,37,29.61,10.0,SW,8.1,18.4,N/A,,Mostly Cloudy,220,2012-02-22 17:54:00
1:54 PM,54.0,27.0,35,29.57,10.0,WSW,13.8,20.7,N/A,,Overcast,240,2012-02-22 18:54:00
2:54 PM,55.9,24.1,29,29.54,10.0,SW,12.7,20.7,N/A,,Overcast,230,2012-02-22 19:54:00
3:54 PM,54.0,26.1,34,29.52,10.0,SW,9.2,-,N/A,,Overcast,230,2012-02-22 20:54:00
4:54 PM,54.0,26.1,34,29.53,10.0,WSW,13.8,23.0,N/A,,Overcast,240,2012-02-22 21:54:00
5:54 PM,48.9,33.1,54,29.56,10.0,SW,13.8,26.5,0.00,Rain,Light Rain,230,2012-02-22 22:54:00
6:54 PM,48.0,34.0,58,29.54,10.0,Variable,6.9,-,0.00,,Mostly Cloudy,0,2012-02-22 23:54:00
7:54 PM,48.0,33.1,56,29.50,10.0,SE,9.2,-,N/A,,Partly Cloudy,130,2012-02-23 00:54:00
8:54 PM,48.0,33.1,56,29.47,10.0,SE,11.5,-,N/A,,Clear,140,2012-02-23 01:54:00
9:54 PM,48.0,32.0,54,29.44,10.0,Calm,Calm,-,N/A,,Partly Cloudy,0,2012-02-23 02:54:00
10:54 PM,44.1,33.1,65,29.42,10.0,NNE,4.6,-,N/A,,Overcast,30,2012-02-23 03:54:00
11:54 PM,42.1,33.1,70,29.42,10.0,Calm,Calm,-,N/A,,Overcast,0,2012-02-23 04:54:00